Weather History for Tapachula Airport, Mexico

Change the Weather History Date:

Saturday, January 26, 2013

  Actual Average Record
Temperature  
Mean Temperature 80 °F -  
Max Temperature 89 °F 86 °F 91 °F (1998)
Min Temperature 71 °F 70 °F 68 °F (2004)
Cooling Degree Days 15    
Growing Degree Days 30 (Base 50)    
Moisture  
Dew Point 68 °F    
Average Humidity 69    
Maximum Humidity 88    
Minimum Humidity 49    
Precipitation  
Precipitation 0.00 in - - ()
Sea Level Pressure  
Sea Level Pressure 29.94 in    
Wind  
Wind Speed 1 mph ()    
Max Wind Speed 12 mph    
Max Gust Speed -    
Visibility 10.0 miles    
Events      
Averages and records for this station are not official NWS values.
T = Trace of Precipitation, MM = Missing Value Source: Averaged Metar Reports

Daily Weather History Graph

Daily Weather History Graph

Search for Another Location

Airport:

Trip Planner

Search our weather history database for the weather conditions in past years. The results will help you decide how hot, cold, wet, or windy it might be!

Date:

Astronomy

Jan. 26, 2013 Rise Set
Actual Time 6:38 AM CST 6:05 PM CST
Civil Twilight 6:16 AM CST 6:28 PM CST
Nautical Twilight 5:50 AM CST 6:54 PM CST
Astronomical Twilight 5:24 AM CST 7:19 PM CST
Moon 5:52 PM CST 6:02 AM CST
Length of Visible Light 12h 11m
Length of Day
11h 26m
Full, 100% of the Moon is Illuminated
Jan 26
Full
Jan 26
Full
Feb 3
Last Quarter
Feb 10
New
Feb 17
First Quarter

Hourly Weather History & Observations

Time (CST) Temp. Heat Index Dew Point Humidity Pressure Visibility Wind Dir Wind Speed Gust Speed Precip Events Conditions
12:40 AM 73.4 °F - 69.8 °F 88% 29.98 in 10.0 mi Calm Calm - N/A   Scattered Clouds
1:40 AM 73.4 °F - 69.8 °F 88% 29.96 in 10.0 mi Calm Calm - N/A   Scattered Clouds
2:40 AM 73.4 °F - 69.8 °F 88% 29.94 in 10.0 mi Calm Calm - N/A   Scattered Clouds
2:42 AM 71.6 °F - 66.2 °F 83% 29.94 in 10.0 mi Calm Calm - N/A   Scattered Clouds
3:40 AM 73.4 °F - 62.6 °F 69% 29.94 in 10.0 mi Calm Calm - N/A   Scattered Clouds
4:40 AM 73.4 °F - 60.8 °F 65% 29.95 in 10.0 mi Calm Calm - N/A   Scattered Clouds
5:40 AM 71.6 °F - 60.8 °F 69% 29.89 in 10.0 mi Calm Calm - N/A   Scattered Clouds
6:40 AM 71.6 °F - 60.8 °F 69% 29.98 in 10.0 mi Calm Calm - N/A   Scattered Clouds
7:40 AM 71.6 °F - 60.8 °F 69% 29.99 in 10.0 mi Calm Calm - N/A   Clear
8:40 AM 71.6 °F - 60.8 °F 69% 29.92 in 10.0 mi Calm Calm - N/A   Clear
9:40 AM 82.4 °F 85.4 °F 68.0 °F 62% 30.01 in 10.0 mi Calm Calm - N/A   Clear
10:40 AM 86.0 °F 89.4 °F 68.0 °F 55% 30.01 in 10.0 mi Calm Calm - N/A   Clear
11:40 AM 89.6 °F 93.4 °F 68.0 °F 49% 29.93 in 10.0 mi Calm Calm - N/A   Clear
12:40 PM 89.6 °F 93.4 °F 68.0 °F 49% 29.97 in 10.0 mi Calm Calm - N/A   Clear
1:40 PM 86.0 °F 89.4 °F 68.0 °F 55% 29.93 in 10.0 mi Calm Calm - N/A   Clear
2:40 PM 87.8 °F 91.4 °F 68.0 °F 52% 29.91 in 10.0 mi WSW 11.5 mph - N/A   Clear
3:40 PM 86.0 °F 88.2 °F 66.2 °F 51% 29.89 in 10.0 mi WSW 11.5 mph - N/A   Clear
4:40 PM 84.2 °F 90.9 °F 73.4 °F 70% 29.88 in 10.0 mi WSW 11.5 mph - N/A   Clear
5:40 PM 84.2 °F 90.9 °F 73.4 °F 70% 29.91 in 10.0 mi WSW 11.5 mph - N/A   Clear
6:40 PM 80.6 °F 84.6 °F 71.6 °F 74% 29.92 in 10.0 mi Calm Calm - N/A   Clear
7:40 PM 80.6 °F 84.6 °F 71.6 °F 74% 29.92 in 10.0 mi Calm Calm - N/A   Clear
8:40 PM 78.8 °F - 71.6 °F 78% 29.91 in 10.0 mi Calm Calm - N/A   Clear
9:40 PM 78.8 °F - 71.6 °F 78% 29.97 in 10.0 mi Calm Calm - N/A   Clear
10:40 PM 77.0 °F - 69.8 °F 78% 29.97 in 10.0 mi Calm Calm - N/A   Clear
11:40 PM 77.0 °F - 69.8 °F 78% 29.95 in 10.0 mi Calm Calm - N/A   Clear